TimePDT,TemperatureF,Dew PointF,Humidity,Sea Level PressureIn,VisibilityMPH,Wind Direction,Wind SpeedMPH,Gust SpeedMPH,PrecipitationIn,Events,Conditions,WindDirDegrees,DateUTC
12:53 AM,84.0,48.0,28,29.71,10.0,Calm,Calm,-,N/A,,Clear,0,2013-06-18 07:53:00
1:53 AM,81.0,50.0,34,29.71,10.0,Calm,Calm,-,N/A,,Clear,0,2013-06-18 08:53:00
2:53 AM,80.1,50.0,35,29.70,10.0,Calm,Calm,-,N/A,,Clear,0,2013-06-18 09:53:00
3:53 AM,75.9,52.0,43,29.70,10.0,Calm,Calm,-,N/A,,Clear,0,2013-06-18 10:53:00
4:53 AM,72.0,55.0,55,29.71,10.0,Calm,Calm,-,N/A,,Clear,0,2013-06-18 11:53:00
5:53 AM,73.9,53.1,48,29.73,10.0,Calm,Calm,-,N/A,,Clear,0,2013-06-18 12:53:00
6:53 AM,80.1,48.0,32,29.73,10.0,Calm,Calm,-,N/A,,Clear,0,2013-06-18 13:53:00
7:53 AM,82.9,48.9,31,29.74,10.0,Calm,Calm,-,N/A,,Clear,0,2013-06-18 14:53:00
8:53 AM,89.1,42.1,19,29.75,10.0,Calm,Calm,-,N/A,,Clear,0,2013-06-18 15:53:00
9:53 AM,91.9,37.9,15,29.74,10.0,Calm,Calm,-,N/A,,Clear,0,2013-06-18 16:53:00
10:53 AM,97.0,36.0,12,29.73,10.0,Calm,Calm,-,N/A,,Clear,0,2013-06-18 17:53:00
11:53 AM,100.0,34.0,10,29.72,10.0,Variable,4.6,-,N/A,,Clear,0,2013-06-18 18:53:00
12:53 PM,100.0,34.0,10,29.71,10.0,Variable,4.6,-,N/A,,Clear,0,2013-06-18 19:53:00
1:53 PM,102.0,32.0,9,29.69,10.0,Calm,Calm,-,N/A,,Clear,0,2013-06-18 20:53:00
2:53 PM,106.0,32.0,8,29.65,10.0,Variable,5.8,-,N/A,,Clear,0,2013-06-18 21:53:00
3:53 PM,106.0,35.1,9,29.63,10.0,North,11.5,21.9,N/A,,Clear,350,2013-06-18 22:53:00
4:53 PM,105.1,36.0,9,29.61,10.0,NW,8.1,19.6,N/A,,Clear,310,2013-06-18 23:53:00
5:53 PM,102.0,39.0,11,29.61,10.0,NW,15.0,26.5,N/A,,Clear,320,2013-06-19 00:53:00
6:53 PM,99.0,36.0,11,29.61,10.0,NNW,11.5,26.5,N/A,,Clear,340,2013-06-19 01:53:00
7:53 PM,95.0,37.0,13,29.61,10.0,NW,15.0,28.8,N/A,,Clear,320,2013-06-19 02:53:00
8:53 PM,91.9,37.0,15,29.62,10.0,NW,16.1,23.0,N/A,,Clear,320,2013-06-19 03:53:00
9:53 PM,89.1,39.9,18,29.64,10.0,NW,12.7,25.3,N/A,,Clear,320,2013-06-19 04:53:00
10:53 PM,86.0,41.0,20,29.64,10.0,NW,10.4,-,N/A,,Clear,320,2013-06-19 05:53:00
11:53 PM,82.0,43.0,25,29.64,10.0,SSE,5.8,-,N/A,,Clear,160,2013-06-19 06:53:00